Simultaneous Nadir Overpasses (SNOs) Predictions

Prediction of SNOs between METOP-B and NOAA-19 Satellite Orbit:

Table of predicted SNOs for the next 14.0 days since TLE Epoch: 11/9/2019
Index Date (METOP-B) Time (METOP-B) Lat,Lon (METOP-B) SZA (METOP-B ) Date (NOAA-19) Time (NOAA-19) Lat,Lon (NOAA-19) SZA (NOAA-19 ) Distance(km) Time Diff (sec)
1 11/14/2019 04:35:25 79.62, 130.02 98.48 11/14/2019 04:34:14 79.61, 130.02 98.45 0.40 71
2 11/14/2019 05:26:07 -79.59, -62.85 81.56 11/14/2019 05:25:19 -79.62, -62.84 81.54 3.15 48
3 11/14/2019 06:16:47 79.60, 104.57 98.48 11/14/2019 06:16:15 79.62, 104.44 98.47 3.20 32
4 11/14/2019 07:07:28 -79.61, -88.02 81.51 11/14/2019 07:07:19 -79.60, -88.13 81.53 2.58 9
5 11/14/2019 07:58:09 79.59, 79.13 98.48 11/14/2019 07:58:15 79.60, 79.15 98.49 1.02 6
6 11/14/2019 08:48:50 -79.60,-113.47 81.51 11/14/2019 08:49:19 -79.58,-113.42 81.51 2.34 29
7 11/14/2019 09:39:31 79.58, 53.68 98.48 11/14/2019 09:40:15 79.58, 53.86 98.50 3.63 44
8 11/14/2019 10:30:12 -79.59,-138.91 81.51 11/14/2019 10:31:20 -79.59,-139.00 81.49 1.88 68




NCC Satellite Simultaneous Nadir Overpasses (SNOs) Prediction Service
